Northfield, Minnesota, United States (55057)
Lat: 44.46N, Lon: 93.16W
Wx Zone: MNZ077
Local Info
Past Weather Observations for Today

NOTE: This archive is for the closest National Weather Service station to Northfield. Information may differ from the station used for current weather conditions.

Click here for Long-term Archive

Time Weather Temperature Dewpoint Humidity Pressure Winds Precip Visibility
16:35
Overcast
54°F / 12°C 48°F / 9°C 82% 29.59 in
(1002 mb)
NW 18.4 mph
(NW 30 kph)
- 10SM
16:14
Overcast
Light Rain
55°F / 13°C 48°F / 9°C 77% 29.56 in
(1001 mb)
WNW 18.4 mph
(WNW 30 kph)
- 10SM
15:54
Overcast
Drizzle
55°F / 13°C 48°F / 9°C 77% 29.56 in
(1001 mb)
NW 11.5 mph
(NW 19 kph)
- 10SM
15:35
Overcast
Drizzle
55°F / 13°C 48°F / 9°C 77% 29.56 in
(1001 mb)
NW 15 mph
(NW 24 kph)
- 10SM
15:14
Overcast
Light Rain
55°F / 13°C 48°F / 9°C 77% 29.56 in
(1001 mb)
NW 13.8 mph
(NW 22 kph)
- 10SM
14:55
Overcast
Light Rain
55°F / 13°C 48°F / 9°C 77% 29.59 in
(1002 mb)
NW 12.7 mph
(NW 20 kph)
- 10SM
14:34
Overcast
55°F / 13°C 48°F / 9°C 77% 29.59 in
(1002 mb)
NW 17.3 mph
(NW 28 kph)
- 10SM
14:14
Overcast
55°F / 13°C 50°F / 10°C 82% 29.59 in
(1002 mb)
W 16.1 mph
(W 26 kph)
- 10SM
13:55
Overcast
57°F / 14°C 52°F / 11°C 82% 29.59 in
(1002 mb)
WNW 16.1 mph
(WNW 26 kph)
0.02 in
(0.51 mm)
10SM
13:34
Overcast
Rain
55°F / 13°C 52°F / 11°C 88% 29.59 in
(1002 mb)
WNW 13.8 mph
(WNW 22 kph)
0.02 in
(0.51 mm)
3SM
13:14
Overcast
61°F / 16°C 54°F / 12°C 77% 29.59 in
(1002 mb)
WNW 19.6 mph
(WNW 32 kph)
- 10SM
12:54
Overcast
Fog And Mist
61°F / 16°C 55°F / 13°C 83% 29.59 in
(1002 mb)
Calm - 5SM
12:35
Overcast
Rain
59°F / 15°C 55°F / 13°C 88% 29.62 in
(1003 mb)
SW 6.9 mph
(SW 11 kph)
- 2 1/2SM
12:14
Overcast
Light Rain
61°F / 16°C 55°F / 13°C 83% 29.62 in
(1003 mb)
SSW 8.1 mph
(SSW 13 kph)
- 4SM
11:54
Overcast
61°F / 16°C 55°F / 13°C 83% 29.62 in
(1003 mb)
SW 9.2 mph
(SW 15 kph)
- 10SM
11:35
Overcast
61°F / 16°C 55°F / 13°C 83% 29.65 in
(1004 mb)
SW 6.9 mph
(SW 11 kph)
- 10SM
11:14
Overcast
61°F / 16°C 55°F / 13°C 83% 29.65 in
(1004 mb)
SW 10.4 mph
(SW 17 kph)
- 10SM
10:54
Overcast
61°F / 16°C 54°F / 12°C 77% 29.65 in
(1004 mb)
S 5.8 mph
(S 9 kph)
- 10SM
10:35
Overcast
61°F / 16°C 54°F / 12°C 77% 29.65 in
(1004 mb)
S 5.8 mph
(S 9 kph)
- 10SM
10:14
Overcast
59°F / 15°C 54°F / 12°C 82% 29.65 in
(1004 mb)
S 10.4 mph
(S 17 kph)
- 10SM
09:54
Overcast
59°F / 15°C 54°F / 12°C 82% 29.65 in
(1004 mb)
S 11.5 mph
(S 19 kph)
- 10SM
09:35
Overcast
59°F / 15°C 52°F / 11°C 77% 29.65 in
(1004 mb)
S 11.5 mph
(S 19 kph)
- 10SM
09:14
Overcast
59°F / 15°C 52°F / 11°C 77% 29.65 in
(1004 mb)
S 12.7 mph
(S 20 kph)
- 10SM
08:54
Overcast
57°F / 14°C 52°F / 11°C 82% 29.68 in
(1005 mb)
SSE 13.8 mph
(SSE 22 kph)
- 10SM
08:34
Overcast
57°F / 14°C 50°F / 10°C 77% 29.68 in
(1005 mb)
S 11.5 mph
(S 19 kph)
- 10SM
08:15
Overcast
54°F / 12°C 48°F / 9°C 82% 29.68 in
(1005 mb)
S 10.4 mph
(S 17 kph)
- 10SM
07:54
Overcast
54°F / 12°C 46°F / 8°C 77% 29.71 in
(1006 mb)
S 8.1 mph
(S 13 kph)
- 10SM
07:34
Overcast
54°F / 12°C 46°F / 8°C 77% 29.71 in
(1006 mb)
S 8.1 mph
(S 13 kph)
- 10SM
07:15
Overcast
54°F / 12°C 46°F / 8°C 77% 29.71 in
(1006 mb)
SSE 4.6 mph
(SSE 7 kph)
- 10SM
06:54
Overcast
52°F / 11°C 46°F / 8°C 82% 29.71 in
(1006 mb)
SSE 5.8 mph
(SSE 9 kph)
- 10SM
Time Weather Temperature Dewpoint Humidity Pressure Winds Precip Visibility


Weather for websites

WeatherForYou.com, LLC is not responsible for any damages or problems caused by this service. Current weather conditions are obtained from the closest station including government and personal stations which may have varying degrees of accuracy. Weather forecasts are derived from the NOAA NDFD. Like all things, this site belongs to Jesus Christ... He just trusts me to maintain it. If you have any questions or comments email webmaster@weatherforyou.com

Copyright © 2015, WeatherForYou.com LLC. All rights reserved.